When you browse on this site, cookies collect data to enhance your experience and personalize the content and advertising you see.
Visit our Privacy Policy to learn more. By continuing to use the site, you agree to this use of cookies and data.
  • In Hungary
  • List of Countries
  • For 7 days
  • Water Temperature
  • Satellite Maps
  • Weather Map
  • News
  • Weather Widgets
  • user-avatar
    Login

    Hourly Weather Wadsworth

    Today, 19 June, Wednesday

    Time Temperature Precipitation Wind Pressure Humidity
    00:00 +18°C° 0 mm 1 mps 727 mmHg 93%
    01:00 +18°C° 0 mm 1 mps 727 mmHg 94%
    02:00 +18°C° 0 mm 1 mps 726 mmHg 94%
    03:00 +18°C° 0 mm 1 mps 726 mmHg 95%
    04:00 +18°C° 0 mm 1 mps 726 mmHg 96%
    05:00 +17°C° 0 mm 0 mps 726 mmHg 95%
    06:00 +18°C° 0 mm 0 mps 726 mmHg 94%
    07:00 +19°C° 0 mm 0 mps 726 mmHg 95%
    08:00 +20°C° 0 mm 0 mps 726 mmHg 91%
    09:00 +23°C° 0 mm 1 mps 726 mmHg 86%
    10:00 +24°C° 0 mm 1 mps 725 mmHg 82%
    11:00 +25°C° 0.4 mm 1 mps 725 mmHg 80%
    12:00 +26°C° 0.4 mm 1 mps 725 mmHg 77%
    13:00 +27°C° 0.4 mm 1 mps 725 mmHg 74%
    14:00 +27°C° 0.3 mm 1 mps 724 mmHg 74%
    15:00 +27°C° 0.3 mm 2 mps 724 mmHg 74%
    16:00 +27°C° 0.3 mm 2 mps 723 mmHg 73%
    17:00 +26°C° 0.4 mm 2 mps 723 mmHg 77%
    18:00 +24°C° 0.4 mm 2 mps 723 mmHg 81%
    19:00 +23°C° 0.4 mm 2 mps 723 mmHg 85%
    20:00 +21°C° 0.4 mm 2 mps 722 mmHg 87%
    21:00 +21°C° 0.4 mm 2 mps 722 mmHg 89%
    22:00 +21°C° 0.4 mm 1 mps 722 mmHg 90%
    23:00 +20°C° 1.4 mm 1 mps 722 mmHg 93%

    Tomorrow, 20 June, Thursday

    Time Temperature Precipitation Wind Pressure Humidity
    00:00 +20°C° 1.4 mm 1 mps 721 mmHg 95%
    01:00 +19°C° 1.4 mm 2 mps 721 mmHg 97%
    02:00 +19°C° 1.5 mm 2 mps 721 mmHg 97%
    03:00 +19°C° 1.5 mm 2 mps 720 mmHg 97%
    04:00 +19°C° 1.5 mm 2 mps 719 mmHg 98%
    05:00 +19°C° 0.8 mm 3 mps 719 mmHg 97%
    06:00 +20°C° 0.8 mm 3 mps 719 mmHg 96%
    07:00 +20°C° 0.8 mm 4 mps 719 mmHg 96%
    08:00 +21°C° 0.4 mm 4 mps 719 mmHg 95%
    09:00 +21°C° 0.4 mm 4 mps 719 mmHg 94%
    10:00 +21°C° 0.4 mm 4 mps 719 mmHg 93%
    11:00 +22°C° 1 mm 4 mps 719 mmHg 91%
    12:00 +22°C° 1 mm 5 mps 719 mmHg 90%
    13:00 +23°C° 1 mm 5 mps 719 mmHg 88%
    14:00 +22°C° 0.6 mm 4 mps 719 mmHg 87%
    15:00 +22°C° 0.6 mm 4 mps 719 mmHg 86%
    16:00 +22°C° 0.6 mm 4 mps 719 mmHg 85%
    17:00 +20°C° 1.7 mm 5 mps 720 mmHg 88%
    18:00 +19°C° 1.7 mm 6 mps 720 mmHg 91%
    19:00 +16°C° 1.7 mm 7 mps 721 mmHg 95%
    20:00 +16°C° 1.1 mm 6 mps 721 mmHg 95%
    21:00 +16°C° 1.1 mm 6 mps 722 mmHg 95%
    22:00 +15°C° 1.1 mm 6 mps 723 mmHg 96%
    23:00 +15°C° 0 mm 6 mps 724 mmHg 95%

    Day after tomorrow, 21 June, Friday

    Time Temperature Precipitation Wind Pressure Humidity
    00:00 +15°C° 0 mm 5 mps 724 mmHg 94%
    01:00 +15°C° 0 mm 5 mps 725 mmHg 94%
    02:00 +14°C° 0 mm 5 mps 725 mmHg 94%
    03:00 +14°C° 0 mm 4 mps 726 mmHg 93%
    04:00 +13°C° 0 mm 4 mps 726 mmHg 93%
    05:00 +13°C° 0 mm 4 mps 727 mmHg 91%
    06:00 +14°C° 0 mm 4 mps 728 mmHg 90%
    07:00 +14°C° 0 mm 4 mps 729 mmHg 89%
    08:00 +17°C° 0 mm 4 mps 729 mmHg 84%
    09:00 +18°C° 0 mm 4 mps 729 mmHg 79%
    10:00 +19°C° 0 mm 4 mps 730 mmHg 75%
    11:00 +20°C° 0 mm 4 mps 730 mmHg 71%
    12:00 +21°C° 0 mm 4 mps 730 mmHg 67%
    13:00 +22°C° 0 mm 4 mps 731 mmHg 63%
    14:00 +22°C° 0 mm 4 mps 731 mmHg 63%
    15:00 +22°C° 0 mm 4 mps 731 mmHg 63%
    16:00 +22°C° 0 mm 3 mps 731 mmHg 63%
    17:00 +21°C° 0 mm 3 mps 731 mmHg 67%
    18:00 +20°C° 0 mm 2 mps 731 mmHg 72%
    19:00 +19°C° 0 mm 2 mps 731 mmHg 76%
    20:00 +19°C° 0 mm 1 mps 732 mmHg 78%
    21:00 +18°C° 0 mm 1 mps 732 mmHg 79%
    22:00 +15°C° 0 mm 1 mps 732 mmHg 81%
    23:00 +15°C° 0 mm 1 mps 732 mmHg 82%

    22 June, Saturday

    Time Temperature Precipitation Wind Pressure Humidity
    00:00 +14°C° 0 mm 1 mps 732 mmHg 84%
    01:00 +14°C° 0 mm 1 mps 733 mmHg 85%
    02:00 +13°C° 0 mm 1 mps 733 mmHg 84%
    03:00 +13°C° 0 mm 1 mps 733 mmHg 82%
    04:00 +13°C° 0 mm 1 mps 732 mmHg 81%
    05:00 +14°C° 0 mm 1 mps 733 mmHg 79%
    06:00 +14°C° 0 mm 1 mps 734 mmHg 78%
    07:00 +15°C° 0 mm 1 mps 734 mmHg 76%
    08:00 +18°C° 0 mm 1 mps 734 mmHg 71%
    09:00 +19°C° 0 mm 1 mps 735 mmHg 66%
    10:00 +21°C° 0 mm 1 mps 735 mmHg 61%
    11:00 +22°C° 0 mm 1 mps 735 mmHg 58%
    12:00 +23°C° 0 mm 1 mps 735 mmHg 56%
    13:00 +22°C° 0 mm 0 mps 735 mmHg 54%
    14:00 +22°C° 0 mm 0 mps 734 mmHg 54%
    15:00 +23°C° 0 mm 0 mps 734 mmHg 54%
    16:00 +23°C° 0 mm 0 mps 733 mmHg 55%
    17:00 +24°C° 0 mm 1 mps 733 mmHg 61%
    18:00 +23°C° 0 mm 1 mps 733 mmHg 68%
    19:00 +22°C° 0 mm 1 mps 733 mmHg 75%
    20:00 +21°C° 0 mm 1 mps 733 mmHg 74%
    21:00 +20°C° 0 mm 1 mps 733 mmHg 73%
    22:00 +17°C° 0 mm 2 mps 733 mmHg 72%
    23:00 +17°C° 0 mm 2 mps 732 mmHg 70%

    23 June, Sunday

    Time Temperature Precipitation Wind Pressure Humidity
    00:00 +17°C° 0 mm 2 mps 732 mmHg 68%
    01:00 +17°C° 0 mm 3 mps 732 mmHg 66%
    02:00 +17°C° 0.1 mm 3 mps 732 mmHg 68%
    03:00 +17°C° 0.1 mm 3 mps 731 mmHg 70%
    04:00 +16°C° 0.1 mm 3 mps 731 mmHg 72%
    05:00 +17°C° 0.1 mm 3 mps 731 mmHg 75%
    06:00 +17°C° 0.1 mm 3 mps 731 mmHg 78%
    07:00 +18°C° 0.1 mm 3 mps 731 mmHg 81%
    08:00 +19°C° 0.4 mm 4 mps 731 mmHg 82%
    09:00 +21°C° 0.4 mm 4 mps 730 mmHg 83%
    10:00 +22°C° 0.4 mm 4 mps 730 mmHg 84%
    11:00 +25°C° 0 mm 4 mps 730 mmHg 81%
    12:00 +28°C° 0 mm 5 mps 730 mmHg 78%
    13:00 +30°C° 0 mm 5 mps 730 mmHg 75%
    14:00 +30°C° 1.1 mm 5 mps 729 mmHg 77%
    15:00 +30°C° 1.1 mm 5 mps 728 mmHg 79%
    16:00 +30°C° 1.1 mm 5 mps 728 mmHg 81%
    17:00 +29°C° 3 mm 5 mps 728 mmHg 83%
    18:00 +28°C° 3 mm 5 mps 728 mmHg 85%
    19:00 +27°C° 3 mm 5 mps 727 mmHg 87%
    20:00 +26°C° 2.2 mm 4 mps 727 mmHg 88%
    21:00 +25°C° 2.2 mm 4 mps 728 mmHg 89%
    22:00 +24°C° 2.2 mm 3 mps 728 mmHg 91%
    23:00 +24°C° 1.3 mm 3 mps 727 mmHg 92%

    24 June, Monday

    Time Temperature Precipitation Wind Pressure Humidity
    00:00 +24°C° 1.3 mm 3 mps 727 mmHg 93%
    01:00 +22°C° 1.3 mm 3 mps 727 mmHg 94%
    02:00 +22°C° 2.3 mm 3 mps 727 mmHg 95%
    03:00 +22°C° 2.3 mm 3 mps 727 mmHg 95%
    04:00 +22°C° 2.3 mm 3 mps 727 mmHg 96%
    05:00 +22°C° 0.4 mm 4 mps 727 mmHg 95%
    06:00 +23°C° 0.4 mm 4 mps 727 mmHg 95%
    07:00 +23°C° 0.4 mm 5 mps 727 mmHg 94%
    08:00 +26°C° 0 mm 5 mps 727 mmHg 89%
    09:00 +27°C° 0 mm 6 mps 727 mmHg 84%
    10:00 +28°C° 0 mm 6 mps 727 mmHg 79%
    11:00 +29°C° 0 mm 6 mps 726 mmHg 77%
    12:00 +29°C° 0 mm 7 mps 726 mmHg 75%
    13:00 +30°C° 0 mm 7 mps 726 mmHg 73%
    14:00 +30°C° 0.7 mm 7 mps 725 mmHg 76%
    15:00 +29°C° 0.7 mm 7 mps 725 mmHg 79%
    16:00 +28°C° 0.7 mm 7 mps 725 mmHg 82%
    17:00 +27°C° 0.2 mm 6 mps 725 mmHg 83%
    18:00 +26°C° 0.2 mm 5 mps 725 mmHg 85%
    19:00 +25°C° 0.2 mm 4 mps 725 mmHg 87%
    20:00 +23°C° 0 mm 5 mps 725 mmHg 87%
    21:00 +23°C° 0 mm 5 mps 725 mmHg 86%
    22:00 +22°C° 0 mm 5 mps 726 mmHg 86%
    23:00 +21°C° 0 mm 5 mps 726 mmHg 87%
    Show more